Weather in Shardara

Kazakhstan     41°15′24″N   67°58′07″E
temp.,
°C
wind,
m/s
gust,
m/s
humid.,
%
clouds,
%
prec.,
mm/h
press.,
hPa
HPBL,
m
22 may, sun
sun2200:00+21nw911565 0.0 1010888
03:00+15wnw111283100 2.4 1013674
06:00+15wnw6978100 12.8 1015724
09:00+17nnw6647100 0.2 10171454
12:00+18nnw3436100 0.2 10181689
15:00+20nw3329100 0.0 10171962
18:00+21n2329100 0.0 10171629
21:00+19e343810 0.0 1017157
23 may, mon
mon2300:00+17ese46486 0.0 1017282
03:00+16sse34550 0.0 1016189
06:00+15e22600 0.0 1015134
09:00+16ne34490 0.0 1016410
12:00+20ene22390 0.0 1013845
15:00+22sse22320 0.0 10121063
18:00+22sse22310 0.0 1010838
21:00+21sse22410 0.0 100951
24 may, tue
tue2400:00+20se11410 0.0 100811
03:00+19e22410 0.0 100615
06:00+18e22470 0.0 100625
09:00+21ese33430 0.0 1007232
12:00+24ese23370 0.0 1005614
15:00+26se23340 0.0 1004905
18:00+28se23330 0.0 1003949
21:00+25ese01430 0.0 100411
25 may, wed
wed2500:00+24ene34450 0.0 100549
03:00+22ene334610 0.0 100523
06:00+21ese33501 0.0 100628
09:00+24ese22505 0.0 1007125
12:00+27se12401 0.0 1007497
15:00+30sse11350 0.0 1007702
18:00+31se11290 0.0 1007631
21:00+29sw01320 0.0 100711
26 may, thu
thu2600:00+27ne44330 0.0 100836
03:00+25ene33420 0.0 100730
06:00+25nnw334125 0.0 100826
09:00+25nnw8113676 0.0 1011328
12:00+29nnw89305 0.0 1011729
15:00+31nnw882654 0.0 10101131
18:00+30nnw88275 0.0 10101288
21:00+28nnw8123124 0.0 1011339